Hourly Data Report for December 23, 2018

TORONTO CITY
ONTARIO
Current Station Operator: ECCC - MSC

43°40'00.000" N
79°24'00.000" W
112.50 m
6158355
71508
XTO

Download Data

Hourly Data (December 2018)
Hourly Data Report for December 23, 2018
TIME
LST
Temp Definition
°C
Dew Point Definition
°C
Rel Hum Definition
%
Precip. Amount Definition
mm

Wind Dir Definition
10's deg

Wind Spd Definition
km/h
Visibility Definition
km
Stn Press Definition
kPa
Hmdx Definition


Wind Chill Definition


Weather Definition


00:00 -0.9 -7.1 63 0.0 LegendMM LegendMM   100.44     LegendNANA
01:00 -0.9 -7.0 63 0.0 LegendMM LegendMM   100.40     LegendNANA
02:00 -0.7 -6.8 63 0.0 LegendMM LegendMM   100.45     LegendNANA
03:00 -0.6 -6.6 64 0.0 LegendMM LegendMM   100.51     LegendNANA
04:00 -0.4 -6.4 64 0.0 LegendMM LegendMM   100.51     LegendNANA
05:00 -0.4 -6.6 63 0.0 LegendMM LegendMM   100.48     LegendNANA
06:00 -0.5 -6.8 62 0.0 LegendMM LegendMM   100.45     LegendNANA
07:00 -0.3 -6.4 63 0.0 LegendMM LegendMM   100.46     LegendNANA
08:00 -0.2 -6.2 64 0.0 LegendMM LegendMM   100.51     LegendNANA
09:00 0.0 -6.1 63 0.0 LegendMM LegendMM   100.57     LegendNANA
10:00 0.2 -5.6 65 0.0 LegendMM LegendMM   100.56     LegendNANA
11:00 0.3 -5.1 67 0.0 LegendMM LegendMM   100.52     LegendNANA
12:00 0.5 -4.1 71 0.0 LegendMM LegendMM   100.44     LegendNANA
13:00 0.5 -3.2 76 0.0 LegendMM LegendMM   100.35     LegendNANA
14:00 0.6 -2.7 79 0.0 LegendMM LegendMM   100.32     LegendNANA
15:00 0.5 -2.7 79 0.0 LegendMM LegendMM   100.31     LegendNANA
16:00 0.8 -2.6 78 0.0 LegendMM LegendMM   100.26     LegendNANA
17:00 0.8 -2.6 78 0.0 LegendMM LegendMM   100.25     LegendNANA
18:00 1.0 -1.9 81 0.0 LegendMM LegendMM   100.27     LegendNANA
19:00 1.4 -1.0 85 0.0 LegendMM LegendMM   100.25     LegendNANA
20:00 1.4 -0.4 87 0.2 LegendMM LegendMM   100.24     LegendNANA
21:00 1.5 -0.2 89 0.0 LegendMM LegendMM   100.20     LegendNANA
22:00 1.7 0.0 89 0.0 LegendMM LegendMM   100.21     LegendNANA
23:00 1.4 0.1 91 0.0 LegendMM LegendMM   100.20     LegendNANA

Notes on Data Quality.

Legend

  • E = Estimated
  • M = Missing
  • NA = Not Available*
  • [empty] = Indicates an unobserved value
Date modified: